Weather in Zubova Poliana

Russia / Republic of Mordovia     54°04′36″N   42°49′47″E
temp.,
°C
wind,
m/s
gust,
m/s
humid.,
%
clouds,
%
prec.,
mm/h
press.,
hPa
HPBL,
m
3 march, wed
wed300:00−4wnw4109484 0.0 1006253
03:00−3nw499585 0.1 1008478
06:00−3nw51094100 0.4 1009742
09:00−5nw5118993 0.4 1011635
12:00−3nw51085100 0.0 1012705
15:00−2nw697995 0.1 10131095
18:00−5w399091 0.0 1012290
21:00−3w4109583 0.1 1012515
4 march, thu
thu400:00−2w51193100 0.2 1010711
03:00−2w61191100 0.4 1008784
06:00−3wsw61394100 0.2 1005680
09:00−1wsw71491100 0.6 1004986
12:000wsw71394100 0.1 1002923
15:000wsw61297100 1.0 1002867
18:00−1wsw51196100 0.9 1001692
21:000wsw4998100 1.8 1001535
5 march, fri
fri500:000wsw3798100 0.9 999374
03:00−1wnw2599100 2.8 999243
06:00−4nne4796100 1.7 999379
09:00−4n4794100 2.6 1002483
12:00−3n4690100 0.3 1005638
15:00−3nnw3483100 0.5 1008774
18:00−7nnw229053 0.0 101021
21:00−10nne119453 0.0 101321
6 march, sat
sat600:00−11se119589 0.0 101321
03:00−12sw119593 0.0 101321
06:00−12sw129535 0.0 101321
09:00−8w239468 0.3 1014251
12:00−5nw4687100 0.3 1014735
15:00−6nw5781100 0.3 1015914
18:00−11nw238817 0.0 101555
21:00−14wnw22908 0.0 101720
7 march, sun
sun700:00−14sw23890 0.0 101621
03:00−14ssw379325 0.0 1015135
06:00−12ssw4119581 0.0 1013291
09:00−8sw7138390 0.0 1009888
12:00−5sw81580100 0.1 10061189
15:00−4sw91890100 0.4 10021277
18:00−4sw91892100 1.6 9981374
21:00−2sw81791100 2.4 9971315